TimeCST,TemperatureF,Dew PointF,Humidity,Sea Level PressureIn,VisibilityMPH,Wind Direction,Wind SpeedMPH,Gust SpeedMPH,PrecipitationIn,Events,Conditions,WindDirDegrees,DateUTC
12:35 AM,35.6,24.8,65,30.24,10.0,SW,10.4,-,N/A,,Clear,230,2012-11-28 06:35:00
12:55 AM,35.6,24.8,65,30.24,10.0,WSW,10.4,-,N/A,,Clear,240,2012-11-28 06:55:00
1:15 AM,35.6,23.0,60,30.24,10.0,WSW,10.4,-,N/A,,Clear,240,2012-11-28 07:15:00
1:35 AM,35.6,24.8,65,30.24,10.0,WSW,9.2,-,N/A,,Clear,250,2012-11-28 07:35:00
1:55 AM,35.6,24.8,65,30.23,10.0,WSW,9.2,-,N/A,,Clear,240,2012-11-28 07:55:00
2:15 AM,35.6,24.8,65,30.24,10.0,WSW,5.8,-,N/A,,Clear,250,2012-11-28 08:15:00
2:35 AM,33.8,24.8,70,30.25,10.0,WSW,4.6,-,N/A,,Clear,250,2012-11-28 08:35:00
2:55 AM,33.8,24.8,70,30.25,10.0,Calm,Calm,-,N/A,,Clear,0,2012-11-28 08:55:00
3:15 AM,32.0,23.0,69,30.25,10.0,WSW,5.8,-,N/A,,Clear,240,2012-11-28 09:15:00
3:35 AM,32.0,23.0,69,30.24,10.0,SW,5.8,-,N/A,,Clear,230,2012-11-28 09:35:00
3:55 AM,32.0,23.0,69,30.24,10.0,WSW,6.9,-,N/A,,Clear,240,2012-11-28 09:55:00
4:15 AM,33.8,26.6,75,30.24,10.0,SW,8.1,-,N/A,,Clear,230,2012-11-28 10:15:00
4:35 AM,33.8,26.6,75,30.24,10.0,SW,6.9,-,N/A,,Clear,230,2012-11-28 10:35:00
4:55 AM,33.8,26.6,75,30.23,10.0,WSW,8.1,-,N/A,,Clear,240,2012-11-28 10:55:00
5:15 AM,33.8,26.6,75,30.23,10.0,WSW,9.2,-,N/A,,Clear,240,2012-11-28 11:15:00
5:35 AM,33.8,26.6,75,30.23,10.0,WSW,9.2,-,N/A,,Clear,240,2012-11-28 11:35:00
5:55 AM,33.8,26.6,75,30.23,10.0,WSW,8.1,-,N/A,,Clear,250,2012-11-28 11:55:00
6:15 AM,33.8,26.6,75,30.23,10.0,WSW,8.1,-,N/A,,Clear,240,2012-11-28 12:15:00
6:35 AM,33.8,26.6,75,30.23,10.0,WSW,6.9,-,N/A,,Clear,250,2012-11-28 12:35:00
6:55 AM,33.8,26.6,75,30.24,10.0,WSW,4.6,-,N/A,,Clear,240,2012-11-28 12:55:00
7:15 AM,32.0,24.8,75,30.24,10.0,WSW,6.9,-,N/A,,Clear,240,2012-11-28 13:15:00
7:35 AM,33.8,26.6,75,30.24,10.0,West,6.9,-,N/A,,Clear,260,2012-11-28 13:35:00
7:55 AM,32.0,24.8,75,30.25,10.0,WSW,4.6,-,N/A,,Clear,250,2012-11-28 13:55:00
8:15 AM,33.8,26.6,75,30.25,10.0,WSW,4.6,-,N/A,,Clear,250,2012-11-28 14:15:00
8:35 AM,35.6,26.6,70,30.25,10.0,West,4.6,-,N/A,,Clear,260,2012-11-28 14:35:00
8:55 AM,39.2,26.6,61,30.26,10.0,West,6.9,-,N/A,,Clear,280,2012-11-28 14:55:00
9:15 AM,41.0,26.6,57,30.26,10.0,West,6.9,-,N/A,,Clear,260,2012-11-28 15:15:00
9:35 AM,46.4,28.4,50,30.26,10.0,West,8.1,-,N/A,,Clear,280,2012-11-28 15:35:00
9:55 AM,50.0,28.4,43,30.27,10.0,West,9.2,-,N/A,,Clear,280,2012-11-28 15:55:00
10:15 AM,51.8,28.4,41,30.27,10.0,West,5.8,-,N/A,,Clear,270,2012-11-28 16:15:00
10:35 AM,55.4,28.4,36,30.26,10.0,West,5.8,-,N/A,,Clear,280,2012-11-28 16:35:00
10:55 AM,59.0,28.4,31,30.27,10.0,West,12.7,-,N/A,,Clear,260,2012-11-28 16:55:00
11:15 AM,59.0,28.4,31,30.26,10.0,West,12.7,-,N/A,,Clear,270,2012-11-28 17:15:00
11:35 AM,64.4,26.6,24,30.25,10.0,SW,12.7,-,N/A,,Clear,230,2012-11-28 17:35:00
11:55 AM,69.8,28.4,21,30.24,10.0,WSW,12.7,-,N/A,,Clear,240,2012-11-28 17:55:00
12:15 PM,69.8,26.6,20,30.23,10.0,SW,10.4,-,N/A,,Clear,230,2012-11-28 18:15:00
12:35 PM,69.8,24.8,18,30.22,10.0,SW,9.2,-,N/A,,Clear,230,2012-11-28 18:35:00
12:55 PM,69.8,23.0,17,30.21,10.0,SW,13.8,-,N/A,,Clear,220,2012-11-28 18:55:00
1:15 PM,71.6,23.0,16,30.20,10.0,SW,11.5,-,N/A,,Clear,220,2012-11-28 19:15:00
1:35 PM,71.6,21.2,15,30.18,10.0,SSW,12.7,18.4,N/A,,Clear,210,2012-11-28 19:35:00
1:55 PM,71.6,23.0,16,30.18,10.0,SSW,11.5,18.4,N/A,,Clear,210,2012-11-28 19:55:00
2:15 PM,73.4,23.0,15,30.17,10.0,SSW,15.0,19.6,N/A,,Clear,210,2012-11-28 20:15:00
2:35 PM,73.4,23.0,15,30.16,10.0,SSW,11.5,16.1,N/A,,Clear,200,2012-11-28 20:35:00
2:55 PM,73.4,23.0,15,30.15,10.0,SW,13.8,19.6,N/A,,Clear,220,2012-11-28 20:55:00
3:15 PM,73.4,21.2,14,30.15,10.0,SW,13.8,18.4,N/A,,Clear,230,2012-11-28 21:15:00
3:35 PM,73.4,19.4,13,30.15,10.0,SW,12.7,18.4,N/A,,Clear,220,2012-11-28 21:35:00
3:55 PM,71.6,19.4,14,30.15,10.0,SSW,13.8,18.4,N/A,,Clear,200,2012-11-28 21:55:00
4:15 PM,71.6,19.4,14,30.15,10.0,SSW,11.5,-,N/A,,Clear,210,2012-11-28 22:15:00
4:35 PM,69.8,19.4,15,30.15,10.0,SSW,9.2,-,N/A,,Clear,200,2012-11-28 22:35:00
4:55 PM,68.0,17.6,15,30.15,10.0,SSW,9.2,-,N/A,,Clear,200,2012-11-28 22:55:00
5:15 PM,62.6,17.6,18,30.15,10.0,SSW,8.1,-,N/A,,Clear,200,2012-11-28 23:15:00
5:35 PM,60.8,17.6,19,30.14,10.0,South,8.1,-,N/A,,Clear,190,2012-11-28 23:35:00
5:55 PM,59.0,19.4,22,30.13,10.0,South,9.2,-,N/A,,Clear,190,2012-11-28 23:55:00
6:15 PM,55.4,23.0,29,30.13,10.0,South,10.4,-,N/A,,Clear,190,2012-11-29 00:15:00
6:35 PM,55.4,24.8,31,30.14,10.0,South,10.4,-,N/A,,Clear,190,2012-11-29 00:35:00
6:55 PM,55.4,24.8,31,30.14,10.0,South,10.4,-,N/A,,Clear,190,2012-11-29 00:55:00
7:15 PM,53.6,24.8,33,30.15,10.0,South,10.4,-,N/A,,Clear,190,2012-11-29 01:15:00
7:35 PM,53.6,26.6,35,30.15,10.0,South,10.4,-,N/A,,Clear,190,2012-11-29 01:35:00
7:55 PM,51.8,24.8,35,30.15,10.0,SSW,9.2,-,N/A,,Clear,200,2012-11-29 01:55:00
8:15 PM,53.6,28.4,38,30.15,10.0,SSW,11.5,-,N/A,,Clear,200,2012-11-29 02:15:00
8:35 PM,51.8,26.6,38,30.15,10.0,SSW,10.4,-,N/A,,Clear,200,2012-11-29 02:35:00
8:55 PM,50.0,28.4,43,30.15,10.0,SSW,9.2,-,N/A,,Clear,200,2012-11-29 02:55:00
9:15 PM,50.0,28.4,43,30.14,10.0,SSW,9.2,-,N/A,,Clear,200,2012-11-29 03:15:00
9:35 PM,51.8,30.2,44,30.13,10.0,SSW,9.2,-,N/A,,Clear,200,2012-11-29 03:35:00
9:55 PM,50.0,28.4,43,30.14,10.0,SSW,10.4,-,N/A,,Clear,210,2012-11-29 03:55:00
10:15 PM,50.0,30.2,47,30.15,10.0,SSW,10.4,-,N/A,,Clear,210,2012-11-29 04:15:00
10:35 PM,50.0,30.2,47,30.14,10.0,SSW,11.5,-,N/A,,Clear,210,2012-11-29 04:35:00
10:55 PM,51.8,32.0,47,30.14,10.0,SSW,13.8,-,N/A,,Clear,210,2012-11-29 04:55:00
11:15 PM,51.8,33.8,50,30.14,10.0,SSW,12.7,-,N/A,,Clear,210,2012-11-29 05:15:00
11:35 PM,51.8,33.8,50,30.14,10.0,SW,12.7,-,N/A,,Clear,220,2012-11-29 05:35:00
11:55 PM,51.8,35.6,54,30.15,10.0,SSW,12.7,19.6,N/A,,Clear,210,2012-11-29 05:55:00